Location: ?
(35.3436°N, 139.3168°E)
Time: 08:37:32
(UTC+00:00)

X-37B - Pass Details

Date: 13 May 2021
Orbit: 386 x 389 km, 45.0° (Epoch: 10 June)

Event Time Altitude Azimuth Distance (km) Brightness Sun altitude
Rises 12:00:12 0° 299° (WNW) 2,271 5.6 -24.3°
Reaches altitude 10° 12:02:17 10° 297° (WNW) 1,413 4.3 -24.6°
Enters shadow 12:03:49 25° 291° (WNW) 815 2.7 -24.8°
